NIMBUS 2 DEB, 28207

Orbit data source: Space-Track

NIMBUS 2 DEB, 28207 is space debris in SSO originally from a launch on Sun, 15 May 1966 UTC launched from the Air Force Western Test Range (AFWTR). Debris objects in space refer to the collection of defunct objects orbiting the Earth. Examples of debris include non-operational satellites, rocket bodies, and fragments generated from explosions, collisions, or faulty payload assembly.

Loading next visibility...
Identifier
28207, 1966-040V
Orbit
SSO
Country
Flag of USUS
Related business
Manufacturer
Unknown
Mission
Spacecraft
Bus & Motor
Unknown
Mass
Unknown
Launch date (UTC)
1966-05-15 (60 years ago)
Launch vehicle
Unknown
Launch site
Air Force Western Test Range (AFWTR)
Object type
Payload
Rocket body
Debris
Shape & HBR
Unknown shape, 0.1 m
Radar Cross Section
Small (<0.1 m²)

Expand to show TLE details & history
Last TLE update: 2 days ago

TLE from 2 days ago
0 NIMBUS 2 DEB
1 28207U 66040V   26261.17370259  .00002447  00000-0  25775-2 0  9991
2 28207 100.3000 329.6497 0049005 250.4198 135.6789 13.75382268625896
Epoch: 2026-09-18T04:10Z
TLE epoch observation values (Epoch: 2026-09-18T04:10:07.903Z)
Latitude
26.06438°
Longitude
-95.05685°
Altitude
1,009.26 km
Speed
7.336 km/s
True Right ascension
21h 38m 18s
True Declination
25° 56' 01"
Sunlit
Object was in full shadow at epoch
Visualization orbit readout
Latitude
Unknown
Longitude
Unknown
Altitude
Unknown
Speed
Unknown
Apparent Right ascension
Unknown
Apparent Declination
Unknown
Sunlit
N/A
Visualization observer readout
Local Sidereal Time
18:22:04
Azimuth
Unknown
Elevation
Unknown
Doppler factor
Unknown
Orbital elements
Apogee altitude
1,013.657 km
Perigee altitude
941.564 km
Semi-major axis
7,355.748 km
Eccentricity
0.0049
Inclination
100.3°
RAAN
329.6497°
Arg. of periapsis
250.4198°
True anomaly
136.06953°
Mean anomaly
135.6789°
Eccentric anomaly
135.87439°
Mean motion
3.44035 °/min
Orbital period
104.64 mins
BSTAR
0.0025775
Loading maneuver chart data...
Computing Atmospheric mass density...
Loading historical data...
Loading historical data...
Loading historical data...
Loading historical data...
Loading historical data...
Loading historical data...
Loading historical data...

Documentation

Showing up to 5 results
|